CST,Max TemperatureF,Mean TemperatureF,Min TemperatureF,Max Dew PointF,MeanDew PointF,Min DewpointF,Max Humidity, Mean Humidity, Min Humidity, Max Sea Level PressureIn, Mean Sea Level PressureIn, Min Sea Level PressureIn, Max VisibilityMiles, Mean VisibilityMiles, Min VisibilityMiles, Max Wind SpeedMPH, Mean Wind SpeedMPH, Max Gust SpeedMPH,PrecipitationIn, CloudCover, Events, WindDirDegrees
2012-12-1,80,71,62,63,60,57,94,70,45,30.09,30.02,29.96,10,10,7,26,13,32,0.00,5,,175
2012-12-2,80,72,64,63,59,55,83,68,42,30.14,30.06,30.02,10,10,10,21,13,26,0.00,3,,180
2012-12-3,78,69,60,61,57,54,88,67,42,30.04,29.99,29.91,10,10,10,24,14,30,0.00,3,,176
2012-12-4,71,60,48,61,44,21,88,53,22,30.27,30.13,30.00,10,10,10,16,8,22,0.00,2,,331
2012-12-5,62,52,42,46,39,30,93,63,44,30.28,30.18,30.06,10,10,10,8,4,,0.00,3,,37
2012-12-6,68,54,39,52,49,37,100,79,52,30.06,29.93,29.83,10,8,2,16,6,22,0.00,3,,147
2012-12-7,73,63,53,57,54,46,94,74,50,29.89,29.84,29.79,10,8,4,14,9,18,0.00,6,,194
2012-12-8,64,58,51,61,50,46,94,75,52,29.93,29.86,29.80,10,8,5,13,4,,0.00,5,,58
2012-12-9,73,57,41,64,51,19,94,69,42,30.01,29.85,29.78,10,9,5,21,13,28,0.00,4,,260
2012-12-10,42,35,28,25,18,12,75,50,31,30.17,30.11,30.02,10,10,10,24,14,31,0.00,2,,328
2012-12-11,50,34,19,21,16,7,93,57,19,30.26,30.18,30.11,10,10,10,7,1,,0.00,0,,169
2012-12-12,55,37,19,27,17,14,93,52,20,30.35,30.28,30.22,10,10,10,13,3,,0.00,0,,140
2012-12-13,62,47,32,28,21,18,70,43,19,30.34,30.27,30.19,10,10,10,13,7,16,0.00,0,,139
2012-12-14,60,50,41,55,38,27,88,59,36,30.21,30.06,29.85,10,10,7,21,8,26,0.02,7,Rain,135
2012-12-15,69,58,48,57,43,30,94,59,23,29.92,29.87,29.83,10,10,3,17,8,22,0.30,3,Rain,206
2012-12-16,71,60,50,46,40,32,77,54,23,29.85,29.77,29.69,10,10,10,12,5,,0.00,1,,214
2012-12-17,59,47,35,45,37,32,87,67,36,29.91,29.84,29.74,10,10,7,14,6,16,0.00,0,,270
2012-12-18,75,55,35,45,34,28,93,54,18,29.87,29.81,29.77,10,10,5,16,6,21,0.00,0,,181
2012-12-19,77,66,55,63,57,27,94,69,29,29.80,29.69,29.57,10,10,5,29,15,43,0.08,5,Rain-Thunderstorm,183
2012-12-20,55,44,32,30,17,3,65,41,15,30.41,30.23,29.80,10,10,10,26,17,38,0.00,0,,299
2012-12-21,62,44,26,25,18,10,80,40,13,30.47,30.38,30.31,10,10,10,10,4,,0.00,0,,220
2012-12-22,64,48,32,45,29,16,67,44,30,30.31,30.20,30.05,10,10,10,20,10,29,0.00,0,,188
2012-12-23,66,55,44,54,42,25,94,60,35,30.03,29.91,29.83,10,10,10,16,9,22,0.00,2,,218
2012-12-24,53,42,32,32,29,27,87,61,35,30.03,29.92,29.81,10,9,7,12,5,,0.00,0,,343
2012-12-25,50,40,30,43,35,23,100,86,61,30.09,29.80,29.56,10,7,0,26,12,37,0.83,7,Rain-Snow-Thunderstorm,350
2012-12-26,32,26,21,25,21,18,100,78,69,30.27,30.18,30.10,10,10,7,21,12,29,0.01,1,,308
2012-12-27,39,29,19,37,29,18,100,91,75,30.13,30.03,29.92,10,7,1,9,3,,0.01,6,,106
2012-12-28,39,36,32,37,33,25,100,88,75,30.21,30.00,29.89,10,7,2,18,8,25,0.06,7,Rain,338
2012-12-29,44,34,24,27,22,19,86,67,39,30.45,30.37,30.21,10,10,10,13,6,17,0.00,0,,312
2012-12-30,46,34,21,32,24,19,93,63,37,30.48,30.37,30.24,10,10,10,13,4,,0.00,2,Rain,141
2012-12-31,44,40,37,43,38,28,100,84,57,30.24,30.08,29.98,10,6,0,12,5,,0.34,8,Fog-Rain,106